SCP
0 0 0 0 0 0 0 0 0 0 0 0 0 0 0 0 0 0 0 0 -0 0 0 0 0 0 0 0 0 0 0 0 0 0 0 0 0 0 0 0 0 0 0
0 0 0 0 0 0 0 0 0 0 0 0 0 0 0 0 0 0 0 0 0 0 0 0 0 0 0 0 0 0 0 0 0 0 0 0 0 0 0 0 0 0 0
0 0 0 0 0 0 0 0 0 0 0 0 0 0 0 0 0 0 0 0 0 0 0 0 0 0 0 -0 -0 -0 -0 -0 -0 0 0 0 0 0 0 0 0 0 0
0 0 0 0 0 0 0 0 0 0 0 0 0 0 0 0 0 0 0 0 0 0 0 0 0 0 0 -0 -0 -0 -0 -0 -0 -0 0 0 0 0 0 0 0 0 0
0 0 0 0 0 0 0 0 0 0 0 0 0 0 0 0 0 0 0 0 0 0 0 0 0 0 0 0 0 -0 -0 -0 0 0 0 0 0 0 0 0 0 0 0
0 0 0 0 0 0 0 0 0 0 0 0 0 0 0 0 0 0 0 0 0 0 0 0 0 0 0 0 0 0 0 0 0 0 0 0 0 0 0 0 0 0 0
0 0 0 0 0 0 0 0 0 0 0 0 0 0 0 0 0 0 0 0 0 0 0 0 0 0 0 0 0 0 0 0 0 0 0 0 0 0 0 0 0 0 0
0 0 0 0 0 0 0 0 0 0 0 0 0 0 0 0 0 0 0 0 0 0 0 0 0 0 0 0 0 0 0 0 0 0 0 0 0 0 0 0 0 0 0
0 0 0 0 0 0 0 0 0 0 0 0 0 0 0 0 0 0 0 0 0 0 0 0 0 0 0 0 0 0 0 0 0 0 0 0 0 0 0 0 0 0 0
0 0 0 0 0 0 0 0 0 0 0 0 0 0 0 0 0 0 0 0 0 0 0 0 0 0 0 0 0 0 0 0 0 0 0 0 0 0 0 0 0 0 0
0 0 0 0 0 0 0 0 0 0 0 0 0 0 0 0 0 0 0 0 0 0 0 0 0 0 0 0 0 0 0 0 0 0 0 0 0 0 0 0 0 0 0
0 0 0 0 0 0 0 0 0 0 0 0 0 0 0 0 0 0 0 0 0 0 0 0 0 0 0 0 0 0 0 0 0 0 0 0 0 0 0 0 0 0 0
0 0 0 0 0 0 0 0 0 0 0 0 0 0 0 0 0 0 0 0 0 0 0 0 0 0 0 0 0 0 0 0 0 0 0 0 0 0 0 0 0 0 0
0 0 0 0 0 0 0 0 0 0 0 0 0 0 0 0 0 0 0 0 0 0 0 0 0 0 0 0 0 0 0 0 0 0 0 0 0 0 0 0 0 0 0
0 0 0 0 0 0 0 0 0 0 0 0 0 0 0 0 0 0 0 0 0 0 0 0 0 0 0 0 0 0 0 0 0 0 0 0 0 0 0 0 0 0 0
0 0 0 0 0 0 0 0 0 0 0 0 0 0 0 0 0 0 0 0 0 0 0 0 0 0 0 0 0 0 0 0 0 0 0 0 0 0 0 0 0 0 0
0 0 0 0 0 0 0 0 0 0 0 0 0 0 0 0 0 0 0 0 0 0 0 0 0 0 0 0 0 0 0 0 0 0 0 0 0 0 0 0 0 0 0
0 0 0 0 0 0 0 0 0 0 0 0 0 0 0 0 0 0 0 0 0 0 0 0 0 0 0 0 0 0 0 0 0 0 0 0 0 0 0 0 0 0 0
0 0 0 0 0 0 0 0 0 0 0 0 0 0 0 0 0 0 0 0 0 0 0 0 0 0 0 0 0 0 0 0 0 0 0 0 0 0 0 0 0 0 0
0 0 0 0 0 0 0 0 0 0 0 0 0 0 0 0 0 0 0 0 0 0 0 0 0 0 0 0 0 0 0 0 0 0 0 0 0 0 0 0 0 0 0
0 0 0 0 0 0 0 0 0 0 0 0 0 0 0 0 0 0 0 0 0 0 0 0 0 0 0 0 0 0 0 0 0 0 0 0 0 0 0 0 0 0 0
0 0 0 0 0 0 0 0 0 0 0 0 0 0 0 0 0 0 0 0 0 0 0 0 0 0 0 0 0 0 0 -0 0 0 0 0 0 0 0 0 0 0 0
0 0 0 0 0 0 0 0 0 0 0 0 0 0 0 0 0 0 -0 -0 -0 -0 -0 0 -0 0 0 0 -0 -0 0 0 0 0 -0 0 0 0 0 0 0 0 0
0 0 0 0 0 0 0 -0 -0 0 0 0 0 0 0 0 0 0 0 0 0 0 -0 -0 -0 -0 0 -0 -0 -0 -0 -0 0 0 -0 -0 0 0 0 0 0 0 0
0 0 0 0 0 0 -0 -0 0 0 0 0 0 0 -0 0 0 -0 -0 -0 -0 -0 -0 -0 -0 -0 -0 -0 0 0 0 -0 -0 -0 0 -0 -0 -0 0 0 0 0 0
-0 0 0 0 0 0 0 -0 0 0 0 0 -0 -0 -0 -0 -0 -0 -0 -0 -0 -0 -0 -0 -0 -0 -0 0 0 0 0 0 -0 0 -0 -0 -0 -0 0 0 0 0 0
Wind_Speed_500mb
44 47 48 46 36 35 37 35 33 29 26 17 10 6 2 3 8 9 8 8 8 9 9 10 15 19 21 23 27 32 34 34 36 40 42 43 46 45 44 45 51 52 47
40 44 46 47 37 34 36 39 34 30 28 21 15 7 6 6 17 14 13 12 12 12 13 13 11 11 14 18 24 27 30 30 34 37 40 44 48 50 50 52 54 56 55
38 40 39 40 41 38 35 33 36 32 31 26 21 15 11 15 20 20 17 16 16 17 17 18 18 16 20 23 26 27 29 29 33 35 40 44 46 47 49 51 53 54 57
42 41 40 36 37 40 39 39 39 39 35 31 26 24 21 22 21 18 16 18 19 20 21 20 22 23 24 27 27 27 30 32 34 36 37 38 43 46 47 50 53 53 53
47 42 42 40 40 40 41 41 41 40 38 35 34 32 28 28 28 27 25 25 25 25 27 25 26 28 28 28 29 29 30 31 31 32 36 41 45 48 49 52 56 58 61
51 51 45 44 41 39 37 38 40 39 40 36 35 33 33 32 33 33 32 32 30 31 31 28 26 25 22 21 23 27 32 34 39 42 46 48 50 50 49 51 51 50 51
51 55 52 46 42 40 35 34 34 36 36 34 34 36 36 35 35 35 37 36 33 35 33 24 16 14 16 20 24 29 35 40 45 45 47 45 42 44 45 38 40 44 47
53 52 57 51 44 41 40 38 36 34 34 34 34 30 27 28 24 22 20 15 13 12 12 12 13 18 23 28 32 38 42 45 41 39 42 45 48 49 52 54 59 61 62
57 56 53 48 43 42 43 42 40 36 34 34 32 28 13 8 11 7 7 7 5 11 11 14 23 31 32 34 35 37 38 27 31 39 47 49 52 53 58 61 66 62 61
44 61 55 51 46 40 43 41 40 37 41 38 35 38 37 40 25 12 5 5 9 9 14 20 26 21 22 23 25 20 21 34 42 47 52 51 51 49 50 51 53 56 59
49 71 65 55 47 47 42 42 44 47 45 42 40 38 38 41 41 40 41 24 22 22 24 29 17 23 21 19 16 20 32 42 48 47 45 43 43 45 48 49 51 54 57
18 48 63 59 50 47 50 47 46 45 43 45 43 42 40 40 38 33 36 37 33 38 25 22 22 22 18 16 20 28 36 49 43 39 39 40 41 42 44 47 51 54 56
12 26 56 64 65 58 44 49 51 47 49 50 50 48 43 42 44 42 41 47 44 34 24 16 18 18 17 23 24 33 41 45 38 38 38 38 39 43 47 49 49 52 56
22 20 19 23 25 39 30 28 29 24 39 43 50 38 46 48 40 47 45 36 51 32 18 18 18 21 21 21 28 36 40 35 35 37 39 40 39 41 43 47 51 53 54
26 26 27 25 27 27 24 25 21 15 19 21 21 27 31 27 20 25 28 43 40 15 19 19 20 21 24 26 31 38 34 33 34 34 37 38 39 42 48 49 50 51 53
30 30 26 31 24 20 26 26 19 24 23 20 20 14 17 13 14 14 15 16 12 14 12 22 24 23 23 25 29 30 29 30 30 33 37 38 44 47 47 48 47 48 53
31 29 30 22 21 18 16 19 20 16 20 17 19 11 7 4 7 1 4 8 8 15 29 24 25 22 20 19 20 21 24 27 31 35 36 40 42 45 46 45 45 49 60
22 24 26 28 22 24 23 12 17 21 14 14 14 17 17 19 10 10 16 18 22 22 23 20 20 18 12 13 14 17 18 23 28 33 36 37 41 43 42 45 44 53 67
16 19 17 22 21 21 23 22 14 15 15 13 12 15 18 13 11 13 15 14 15 14 15 16 17 12 6 7 10 9 11 18 26 31 30 35 41 40 43 43 50 60 73
16 19 19 20 23 25 18 14 19 13 12 14 11 13 9 9 7 10 11 10 10 11 10 10 12 10 5 2 4 6 5 11 22 25 32 39 39 41 41 44 57 67 72
22 22 22 19 18 15 13 17 11 11 12 9 9 4 4 5 6 7 6 4 6 7 8 10 12 15 12 9 7 11 10 5 17 25 26 31 38 43 50 54 61 66 72
21 23 24 23 19 15 15 17 16 15 14 8 5 9 10 9 8 7 7 10 11 14 14 13 15 16 18 15 17 16 19 18 10 22 23 37 42 49 52 59 59 60 67
17 16 16 16 17 16 17 19 19 17 9 6 9 11 9 11 13 14 14 14 15 16 17 17 15 18 20 19 21 20 21 26 25 20 18 36 42 49 52 55 56 57 61
17 13 19 21 18 20 19 16 13 10 7 9 7 8 13 18 19 18 20 21 22 22 21 18 18 20 20 22 24 23 18 22 27 26 25 28 40 45 47 49 54 56 53
14 16 15 15 13 16 14 14 12 15 13 14 16 18 18 20 23 23 21 18 21 23 23 21 19 20 22 24 24 25 20 14 28 30 30 24 23 42 45 46 50 56 55
14 17 14 12 16 14 10 16 17 16 17 14 15 18 24 24 23 22 24 22 21 24 24 23 21 21 22 23 22 20 24 23 14 19 27 34 27 8 34 39 42 46 50
Wind_Direction_500mb
196 196 196 202 208 203 196 190 194 199 193 195 188 192 278 359 349 349 331 342 3 350 0 345 336 339 337 333 333 336 330 334 331 327 328 328 328 331 330 326 325 325 322
198 202 198 205 208 210 203 204 203 210 208 211 207 232 264 303 323 318 302 300 307 312 319 318 304 279 297 297 296 303 308 316 307 310 313 314 316 318 318 316 316 315 314
198 196 208 213 210 199 197 203 206 213 218 226 225 242 268 274 302 308 291 286 291 298 304 301 301 296 277 276 273 280 285 286 292 294 294 299 304 306 307 309 310 307 305
202 196 202 207 210 208 207 209 209 214 219 231 238 246 258 263 288 292 298 293 293 297 299 302 298 294 289 285 286 287 289 292 293 293 296 297 294 297 300 302 303 307 308
204 204 204 206 206 210 212 212 215 220 226 234 243 249 257 264 279 287 292 292 289 289 290 295 297 294 291 289 286 288 290 295 300 302 297 296 299 302 304 305 305 306 306
214 205 206 208 209 211 212 214 219 223 229 233 242 251 259 270 278 284 286 285 289 286 284 288 293 291 292 291 286 288 294 302 303 300 305 311 316 317 317 316 316 316 315
217 213 207 207 212 213 217 216 220 224 231 238 243 255 264 275 277 285 281 280 281 280 278 282 282 286 281 277 284 294 297 301 305 307 315 317 313 312 312 312 312 310 309
220 218 211 209 207 214 221 223 224 227 233 240 251 259 282 290 289 284 277 268 271 274 259 253 269 275 278 284 292 296 300 303 306 315 311 309 309 311 308 307 304 303 303
226 220 216 210 217 215 222 229 227 235 239 246 250 248 276 270 351 8 320 283 259 244 228 264 288 294 287 291 291 296 301 313 319 315 312 308 308 307 305 304 304 306 304
232 224 214 211 216 217 220 226 232 236 243 243 247 249 253 260 276 298 303 293 278 236 278 295 301 294 294 294 298 302 321 322 320 317 312 315 314 317 315 314 316 318 318
200 210 210 212 218 222 224 226 236 240 244 246 252 259 257 258 260 262 276 277 264 270 280 291 281 287 292 301 308 325 323 327 320 320 321 321 325 324 322 324 325 325 323
167 178 203 217 220 224 231 233 237 242 245 247 251 252 251 253 260 262 266 276 274 282 280 278 281 287 289 309 314 328 323 325 325 330 328 329 331 330 329 330 331 331 329
210 171 208 223 230 236 236 231 246 243 240 243 246 247 256 262 269 272 274 274 275 269 264 271 275 279 281 289 316 320 321 325 329 335 334 336 337 338 338 337 337 338 338
224 219 189 204 191 211 210 210 239 233 238 249 256 245 263 266 272 269 266 279 268 262 230 246 282 275 272 290 315 320 325 324 336 341 340 342 343 342 345 349 347 345 347
232 222 224 220 214 203 219 205 215 222 253 253 249 244 263 288 276 280 278 258 268 223 215 251 255 274 285 298 314 322 330 336 345 348 352 352 354 354 355 354 354 354 351
230 224 224 225 225 220 221 217 225 235 239 237 228 218 255 283 284 286 270 277 222 223 216 243 242 261 276 297 318 325 331 343 350 359 360 357 359 0 0 2 0 356 349
225 223 218 214 219 215 213 213 218 224 238 235 243 240 259 211 55 99 138 292 161 220 247 244 249 256 274 302 315 324 341 352 0 2 359 3 4 7 8 6 2 0 357
206 207 214 208 209 215 223 214 208 214 207 222 216 224 199 199 184 182 161 181 209 241 238 244 238 251 274 303 321 343 349 359 5 5 7 10 13 15 12 11 7 5 7
173 176 183 185 191 189 182 179 186 196 195 184 207 207 196 201 227 218 203 207 254 243 242 243 222 231 242 326 341 339 5 10 8 13 15 17 23 19 19 14 19 15 16
124 130 156 165 176 183 167 176 179 175 189 193 187 188 197 184 214 226 211 220 248 261 232 206 181 155 144 183 2 24 47 13 14 21 26 26 25 26 26 25 26 26 23
124 135 151 164 157 149 159 172 177 180 179 180 185 224 208 220 200 183 212 233 211 166 161 166 157 139 131 110 110 82 71 71 36 37 36 34 35 35 37 35 33 35 33
134 139 145 146 157 168 183 170 170 160 156 159 192 169 185 189 202 207 176 160 149 144 141 147 136 126 124 102 77 84 74 70 60 39 52 45 41 41 43 44 43 49 43
131 138 141 136 150 152 158 154 159 140 122 129 142 161 170 192 180 164 153 145 141 136 132 127 124 116 98 88 77 77 71 57 60 70 79 59 49 47 48 52 52 54 48
129 136 148 154 156 158 166 175 180 161 217 215 205 178 158 158 156 155 157 156 154 141 124 127 117 104 98 84 75 65 66 63 65 71 70 73 57 56 57 57 61 60 56
151 150 147 155 168 175 193 186 177 185 212 196 180 165 165 157 151 150 142 146 142 133 133 123 116 103 88 78 71 65 61 73 64 64 65 68 78 63 62 63 68 71 70
163 155 142 144 185 186 184 173 159 168 187 193 179 174 164 161 151 153 151 147 146 140 134 132 121 107 95 84 78 78 72 69 71 60 62 67 64 98 58 64 77 83 82
Wind_Speed_850mb
44 47 48 46 36 35 37 35 33 29 26 17 10 6 2 3 8 9 8 8 8 9 9 10 15 19 21 23 27 32 34 34 36 40 42 43 46 45 44 45 51 52 47
40 44 46 47 37 34 36 39 34 30 28 21 15 7 6 6 17 14 13 12 12 12 13 13 11 11 14 18 24 27 30 30 34 37 40 44 48 50 50 52 54 56 55
38 40 39 40 41 38 35 33 36 32 31 26 21 15 11 15 20 20 17 16 16 17 17 18 18 16 20 23 26 27 29 29 33 35 40 44 46 47 49 51 53 54 57
42 41 40 36 37 40 39 39 39 39 35 31 26 24 21 22 21 18 16 18 19 20 21 20 22 23 24 27 27 27 30 32 34 36 37 38 43 46 47 50 53 53 53
47 42 42 40 40 40 41 41 41 40 38 35 34 32 28 28 28 27 25 25 25 25 27 25 26 28 28 28 29 29 30 31 31 32 36 41 45 48 49 52 56 58 61
51 51 45 44 41 39 37 38 40 39 40 36 35 33 33 32 33 33 32 32 30 31 31 28 26 25 22 21 23 27 32 34 39 42 46 48 50 50 49 51 51 50 51
51 55 52 46 42 40 35 34 34 36 36 34 34 36 36 35 35 35 37 36 33 35 33 24 16 14 16 20 24 29 35 40 45 45 47 45 42 44 45 38 40 44 47
53 52 57 51 44 41 40 38 36 34 34 34 34 30 27 28 24 22 20 15 13 12 12 12 13 18 23 28 32 38 42 45 41 39 42 45 48 49 52 54 59 61 62
57 56 53 48 43 42 43 42 40 36 34 34 32 28 13 8 11 7 7 7 5 11 11 14 23 31 32 34 35 37 38 27 31 39 47 49 52 53 58 61 66 62 61
44 61 55 51 46 40 43 41 40 37 41 38 35 38 37 40 25 12 5 5 9 9 14 20 26 21 22 23 25 20 21 34 42 47 52 51 51 49 50 51 53 56 59
49 71 65 55 47 47 42 42 44 47 45 42 40 38 38 41 41 40 41 24 22 22 24 29 17 23 21 19 16 20 32 42 48 47 45 43 43 45 48 49 51 54 57
18 48 63 59 50 47 50 47 46 45 43 45 43 42 40 40 38 33 36 37 33 38 25 22 22 22 18 16 20 28 36 49 43 39 39 40 41 42 44 47 51 54 56
12 26 56 64 65 58 44 49 51 47 49 50 50 48 43 42 44 42 41 47 44 34 24 16 18 18 17 23 24 33 41 45 38 38 38 38 39 43 47 49 49 52 56
22 20 19 23 25 39 30 28 29 24 39 43 50 38 46 48 40 47 45 36 51 32 18 18 18 21 21 21 28 36 40 35 35 37 39 40 39 41 43 47 51 53 54
26 26 27 25 27 27 24 25 21 15 19 21 21 27 31 27 20 25 28 43 40 15 19 19 20 21 24 26 31 38 34 33 34 34 37 38 39 42 48 49 50 51 53
30 30 26 31 24 20 26 26 19 24 23 20 20 14 17 13 14 14 15 16 12 14 12 22 24 23 23 25 29 30 29 30 30 33 37 38 44 47 47 48 47 48 53
31 29 30 22 21 18 16 19 20 16 20 17 19 11 7 4 7 1 4 8 8 15 29 24 25 22 20 19 20 21 24 27 31 35 36 40 42 45 46 45 45 49 60
22 24 26 28 22 24 23 12 17 21 14 14 14 17 17 19 10 10 16 18 22 22 23 20 20 18 12 13 14 17 18 23 28 33 36 37 41 43 42 45 44 53 67
16 19 17 22 21 21 23 22 14 15 15 13 12 15 18 13 11 13 15 14 15 14 15 16 17 12 6 7 10 9 11 18 26 31 30 35 41 40 43 43 50 60 73
16 19 19 20 23 25 18 14 19 13 12 14 11 13 9 9 7 10 11 10 10 11 10 10 12 10 5 2 4 6 5 11 22 25 32 39 39 41 41 44 57 67 72
22 22 22 19 18 15 13 17 11 11 12 9 9 4 4 5 6 7 6 4 6 7 8 10 12 15 12 9 7 11 10 5 17 25 26 31 38 43 50 54 61 66 72
21 23 24 23 19 15 15 17 16 15 14 8 5 9 10 9 8 7 7 10 11 14 14 13 15 16 18 15 17 16 19 18 10 22 23 37 42 49 52 59 59 60 67
17 16 16 16 17 16 17 19 19 17 9 6 9 11 9 11 13 14 14 14 15 16 17 17 15 18 20 19 21 20 21 26 25 20 18 36 42 49 52 55 56 57 61
17 13 19 21 18 20 19 16 13 10 7 9 7 8 13 18 19 18 20 21 22 22 21 18 18 20 20 22 24 23 18 22 27 26 25 28 40 45 47 49 54 56 53
14 16 15 15 13 16 14 14 12 15 13 14 16 18 18 20 23 23 21 18 21 23 23 21 19 20 22 24 24 25 20 14 28 30 30 24 23 42 45 46 50 56 55
14 17 14 12 16 14 10 16 17 16 17 14 15 18 24 24 23 22 24 22 21 24 24 23 21 21 22 23 22 20 24 23 14 19 27 34 27 8 34 39 42 46 50
Wind_Direction_850mb
196 196 196 202 208 203 196 190 194 199 193 195 188 192 278 359 349 349 331 342 3 350 0 345 336 339 337 333 333 336 330 334 331 327 328 328 328 331 330 326 325 325 322
198 202 198 205 208 210 203 204 203 210 208 211 207 232 264 303 323 318 302 300 307 312 319 318 304 279 297 297 296 303 308 316 307 310 313 314 316 318 318 316 316 315 314
198 196 208 213 210 199 197 203 206 213 218 226 225 242 268 274 302 308 291 286 291 298 304 301 301 296 277 276 273 280 285 286 292 294 294 299 304 306 307 309 310 307 305
202 196 202 207 210 208 207 209 209 214 219 231 238 246 258 263 288 292 298 293 293 297 299 302 298 294 289 285 286 287 289 292 293 293 296 297 294 297 300 302 303 307 308
204 204 204 206 206 210 212 212 215 220 226 234 243 249 257 264 279 287 292 292 289 289 290 295 297 294 291 289 286 288 290 295 300 302 297 296 299 302 304 305 305 306 306
214 205 206 208 209 211 212 214 219 223 229 233 242 251 259 270 278 284 286 285 289 286 284 288 293 291 292 291 286 288 294 302 303 300 305 311 316 317 317 316 316 316 315
217 213 207 207 212 213 217 216 220 224 231 238 243 255 264 275 277 285 281 280 281 280 278 282 282 286 281 277 284 294 297 301 305 307 315 317 313 312 312 312 312 310 309
220 218 211 209 207 214 221 223 224 227 233 240 251 259 282 290 289 284 277 268 271 274 259 253 269 275 278 284 292 296 300 303 306 315 311 309 309 311 308 307 304 303 303
226 220 216 210 217 215 222 229 227 235 239 246 250 248 276 270 351 8 320 283 259 244 228 264 288 294 287 291 291 296 301 313 319 315 312 308 308 307 305 304 304 306 304
232 224 214 211 216 217 220 226 232 236 243 243 247 249 253 260 276 298 303 293 278 236 278 295 301 294 294 294 298 302 321 322 320 317 312 315 314 317 315 314 316 318 318
200 210 210 212 218 222 224 226 236 240 244 246 252 259 257 258 260 262 276 277 264 270 280 291 281 287 292 301 308 325 323 327 320 320 321 321 325 324 322 324 325 325 323
167 178 203 217 220 224 231 233 237 242 245 247 251 252 251 253 260 262 266 276 274 282 280 278 281 287 289 309 314 328 323 325 325 330 328 329 331 330 329 330 331 331 329
210 171 208 223 230 236 236 231 246 243 240 243 246 247 256 262 269 272 274 274 275 269 264 271 275 279 281 289 316 320 321 325 329 335 334 336 337 338 338 337 337 338 338
224 219 189 204 191 211 210 210 239 233 238 249 256 245 263 266 272 269 266 279 268 262 230 246 282 275 272 290 315 320 325 324 336 341 340 342 343 342 345 349 347 345 347
232 222 224 220 214 203 219 205 215 222 253 253 249 244 263 288 276 280 278 258 268 223 215 251 255 274 285 298 314 322 330 336 345 348 352 352 354 354 355 354 354 354 351
230 224 224 225 225 220 221 217 225 235 239 237 228 218 255 283 284 286 270 277 222 223 216 243 242 261 276 297 318 325 331 343 350 359 360 357 359 0 0 2 0 356 349
225 223 218 214 219 215 213 213 218 224 238 235 243 240 259 211 55 99 138 292 161 220 247 244 249 256 274 302 315 324 341 352 0 2 359 3 4 7 8 6 2 0 357
206 207 214 208 209 215 223 214 208 214 207 222 216 224 199 199 184 182 161 181 209 241 238 244 238 251 274 303 321 343 349 359 5 5 7 10 13 15 12 11 7 5 7
173 176 183 185 191 189 182 179 186 196 195 184 207 207 196 201 227 218 203 207 254 243 242 243 222 231 242 326 341 339 5 10 8 13 15 17 23 19 19 14 19 15 16
124 130 156 165 176 183 167 176 179 175 189 193 187 188 197 184 214 226 211 220 248 261 232 206 181 155 144 183 2 24 47 13 14 21 26 26 25 26 26 25 26 26 23
124 135 151 164 157 149 159 172 177 180 179 180 185 224 208 220 200 183 212 233 211 166 161 166 157 139 131 110 110 82 71 71 36 37 36 34 35 35 37 35 33 35 33
134 139 145 146 157 168 183 170 170 160 156 159 192 169 185 189 202 207 176 160 149 144 141 147 136 126 124 102 77 84 74 70 60 39 52 45 41 41 43 44 43 49 43
131 138 141 136 150 152 158 154 159 140 122 129 142 161 170 192 180 164 153 145 141 136 132 127 124 116 98 88 77 77 71 57 60 70 79 59 49 47 48 52 52 54 48
129 136 148 154 156 158 166 175 180 161 217 215 205 178 158 158 156 155 157 156 154 141 124 127 117 104 98 84 75 65 66 63 65 71 70 73 57 56 57 57 61 60 56
151 150 147 155 168 175 193 186 177 185 212 196 180 165 165 157 151 150 142 146 142 133 133 123 116 103 88 78 71 65 61 73 64 64 65 68 78 63 62 63 68 71 70
163 155 142 144 185 186 184 173 159 168 187 193 179 174 164 161 151 153 151 147 146 140 134 132 121 107 95 84 78 78 72 69 71 60 62 67 64 98 58 64 77 83 82